Location: Clyde
(45.1830°S, 169.3170°E)
Time: 10:29:23
(UTC+12:00)

Meteor 2-21 Rocket - Pass Details

Date: 14 May 2021
Orbit: 936 x 967 km, 82.5° (Epoch: 15 June)

Event Time Altitude Azimuth Distance (km) Brightness Sun altitude
Rises 19:31:40 0° 5° (N) 3,647 7.5 -22.3°
Reaches altitude 10° 19:34:10 10° 8° (N) 2,709 6.8 -22.7°
Maximum altitude 19:40:17 62° 86° (E) 1,093 4.4 -23.8°
Drops below altitude 10° 19:46:28 10° 165° (SSE) 2,740 6.7 -24.9°
Sets 19:49:01 0° 168° (SSE) 3,691 7.4 -25.3°
